Stündliche Wetter Czyrna

Heute, 22 Oktober, Donnerstag

Zeit Temperatur Niederschläge Wind Luftdruck Luftfeuchtigkeit
00:00 +5°C° 0 mm 4 m/S 716 mmHg 86%
01:00 +5°C° 0 mm 4 m/S 716 mmHg 87%
02:00 +5°C° 0 mm 3 m/S 716 mmHg 88%
03:00 +5°C° 0 mm 3 m/S 716 mmHg 89%
04:00 +5°C° 0 mm 3 m/S 716 mmHg 90%
05:00 +5°C° 0 mm 3 m/S 716 mmHg 89%
06:00 +5°C° 0 mm 3 m/S 716 mmHg 88%
07:00 +5°C° 0 mm 3 m/S 717 mmHg 88%
08:00 +8°C° 0 mm 3 m/S 717 mmHg 82%
09:00 +10°C° 0 mm 3 m/S 717 mmHg 75%
10:00 +12°C° 0 mm 3 m/S 717 mmHg 69%
11:00 +13°C° 0 mm 4 m/S 717 mmHg 67%
12:00 +13°C° 0 mm 4 m/S 717 mmHg 65%
13:00 +14°C° 0 mm 4 m/S 717 mmHg 63%
14:00 +13°C° 0 mm 3 m/S 717 mmHg 68%
15:00 +12°C° 0 mm 3 m/S 717 mmHg 72%
16:00 +11°C° 0 mm 3 m/S 716 mmHg 77%
17:00 +10°C° 0 mm 2 m/S 716 mmHg 80%
18:00 +9°C° 0 mm 2 m/S 716 mmHg 84%
19:00 +8°C° 0 mm 2 m/S 716 mmHg 88%
20:00 +8°C° 0 mm 2 m/S 716 mmHg 88%
21:00 +8°C° 0 mm 2 m/S 716 mmHg 89%
22:00 +8°C° 0 mm 2 m/S 716 mmHg 90%
23:00 +7°C° 0 mm 2 m/S 716 mmHg 91%

Morgen, 23 Oktober, Freitag

Zeit Temperatur Niederschläge Wind Luftdruck Luftfeuchtigkeit
00:00 +7°C° 0 mm 2 m/S 716 mmHg 91%
01:00 +7°C° 0 mm 2 m/S 716 mmHg 92%
02:00 +7°C° 0 mm 2 m/S 716 mmHg 92%
03:00 +6°C° 0 mm 2 m/S 715 mmHg 92%
04:00 +6°C° 0 mm 2 m/S 715 mmHg 92%
05:00 +6°C° 0 mm 2 m/S 715 mmHg 92%
06:00 +6°C° 0 mm 2 m/S 715 mmHg 92%
07:00 +6°C° 0 mm 2 m/S 715 mmHg 92%
08:00 +8°C° 0 mm 2 m/S 715 mmHg 87%
09:00 +9°C° 0 mm 2 m/S 715 mmHg 83%
10:00 +12°C° 0 mm 2 m/S 715 mmHg 78%
11:00 +13°C° 0 mm 2 m/S 714 mmHg 76%
12:00 +13°C° 0 mm 2 m/S 714 mmHg 75%
13:00 +14°C° 0 mm 2 m/S 714 mmHg 74%
14:00 +13°C° 0 mm 2 m/S 714 mmHg 78%
15:00 +12°C° 0 mm 2 m/S 713 mmHg 83%
16:00 +12°C° 0 mm 2 m/S 713 mmHg 87%
17:00 +10°C° 0 mm 2 m/S 713 mmHg 90%
18:00 +9°C° 0 mm 2 m/S 713 mmHg 92%
19:00 +9°C° 0 mm 1 m/S 713 mmHg 95%
20:00 +9°C° 0 mm 1 m/S 713 mmHg 95%
21:00 +9°C° 0 mm 1 m/S 712 mmHg 95%
22:00 +9°C° 0 mm 1 m/S 712 mmHg 95%
23:00 +9°C° 0 mm 1 m/S 712 mmHg 95%

übermorgen, 24 Oktober, Samstag

Zeit Temperatur Niederschläge Wind Luftdruck Luftfeuchtigkeit
00:00 +8°C° 0 mm 1 m/S 712 mmHg 95%
01:00 +8°C° 0 mm 1 m/S 712 mmHg 95%
02:00 +8°C° 0 mm 1 m/S 712 mmHg 95%
03:00 +8°C° 0 mm 1 m/S 711 mmHg 95%
04:00 +8°C° 0 mm 1 m/S 711 mmHg 95%
05:00 +8°C° 0 mm 1 m/S 711 mmHg 93%
06:00 +8°C° 0 mm 1 m/S 711 mmHg 92%
07:00 +8°C° 0 mm 1 m/S 712 mmHg 91%
08:00 +9°C° 0.1 mm 1 m/S 712 mmHg 88%
09:00 +11°C° 0.1 mm 1 m/S 712 mmHg 86%
10:00 +12°C° 0.1 mm 1 m/S 713 mmHg 83%
11:00 +12°C° 0.1 mm 1 m/S 713 mmHg 84%
12:00 +12°C° 0.1 mm 1 m/S 713 mmHg 85%
13:00 +12°C° 0.1 mm 2 m/S 713 mmHg 86%
14:00 +12°C° 0 mm 2 m/S 714 mmHg 88%
15:00 +12°C° 0 mm 2 m/S 714 mmHg 89%
16:00 +12°C° 0 mm 2 m/S 714 mmHg 91%
17:00 +11°C° 0 mm 1 m/S 714 mmHg 92%
18:00 +10°C° 0 mm 1 m/S 715 mmHg 93%
19:00 +9°C° 0 mm 1 m/S 715 mmHg 94%
20:00 +9°C° 0 mm 1 m/S 715 mmHg 94%
21:00 +9°C° 0 mm 1 m/S 716 mmHg 94%
22:00 +9°C° 0 mm 1 m/S 716 mmHg 94%
23:00 +8°C° 0 mm 1 m/S 716 mmHg 94%

, 25 Oktober, Sonntag

Zeit Temperatur Niederschläge Wind Luftdruck Luftfeuchtigkeit
00:00 +8°C° 0 mm 1 m/S 716 mmHg 93%
01:00 +7°C° 0 mm 0 m/S 716 mmHg 93%
02:00 +7°C° 0 mm 0 m/S 716 mmHg 93%
03:00 +7°C° 0 mm 0 m/S 716 mmHg 93%
04:00 +6°C° 0 mm 0 m/S 716 mmHg 93%
05:00 +6°C° 0 mm 0 m/S 716 mmHg 93%
06:00 +7°C° 0 mm 0 m/S 716 mmHg 92%
07:00 +7°C° 0 mm 0 m/S 716 mmHg 92%
08:00 +10°C° 0 mm 1 m/S 716 mmHg 85%
09:00 +12°C° 0 mm 1 m/S 716 mmHg 77%
10:00 +14°C° 0 mm 1 m/S 717 mmHg 70%
11:00 +14°C° 0 mm 1 m/S 716 mmHg 66%
12:00 +15°C° 0 mm 1 m/S 716 mmHg 63%
13:00 +15°C° 0 mm 1 m/S 716 mmHg 60%
14:00 +14°C° 0 mm 1 m/S 715 mmHg 66%
15:00 +13°C° 0 mm 1 m/S 715 mmHg 73%
16:00 +12°C° 0 mm 1 m/S 714 mmHg 79%
17:00 +11°C° 0 mm 1 m/S 714 mmHg 82%
18:00 +10°C° 0 mm 1 m/S 714 mmHg 86%
19:00 +9°C° 0 mm 1 m/S 714 mmHg 89%
20:00 +9°C° 0 mm 1 m/S 714 mmHg 88%
21:00 +9°C° 0 mm 1 m/S 714 mmHg 88%
22:00 +8°C° 0 mm 1 m/S 714 mmHg 87%
23:00 +8°C° 0 mm 1 m/S 713 mmHg 87%

25 Oktober, Sonntag

Zeit Temperatur Niederschläge Wind Luftdruck Luftfeuchtigkeit
00:00 +8°C° 0 mm 1 m/S 716 mmHg 93%
01:00 +7°C° 0 mm 0 m/S 716 mmHg 93%
02:00 +7°C° 0 mm 0 m/S 716 mmHg 93%
03:00 +7°C° 0 mm 0 m/S 716 mmHg 93%
04:00 +6°C° 0 mm 0 m/S 716 mmHg 93%
05:00 +6°C° 0 mm 0 m/S 716 mmHg 93%
06:00 +7°C° 0 mm 0 m/S 716 mmHg 92%
07:00 +7°C° 0 mm 0 m/S 716 mmHg 92%
08:00 +10°C° 0 mm 1 m/S 716 mmHg 85%
09:00 +12°C° 0 mm 1 m/S 716 mmHg 77%
10:00 +14°C° 0 mm 1 m/S 717 mmHg 70%
11:00 +14°C° 0 mm 1 m/S 716 mmHg 66%
12:00 +15°C° 0 mm 1 m/S 716 mmHg 63%
13:00 +15°C° 0 mm 1 m/S 716 mmHg 60%
14:00 +14°C° 0 mm 1 m/S 715 mmHg 66%
15:00 +13°C° 0 mm 1 m/S 715 mmHg 73%
16:00 +12°C° 0 mm 1 m/S 714 mmHg 79%
17:00 +11°C° 0 mm 1 m/S 714 mmHg 82%
18:00 +10°C° 0 mm 1 m/S 714 mmHg 86%
19:00 +9°C° 0 mm 1 m/S 714 mmHg 89%
20:00 +9°C° 0 mm 1 m/S 714 mmHg 88%
21:00 +9°C° 0 mm 1 m/S 714 mmHg 88%
22:00 +8°C° 0 mm 1 m/S 714 mmHg 87%
23:00 +8°C° 0 mm 1 m/S 713 mmHg 87%

26 Oktober, Montag

Zeit Temperatur Niederschläge Wind Luftdruck Luftfeuchtigkeit
00:00 +8°C° 0 mm 1 m/S 713 mmHg 88%
01:00 +8°C° 0 mm 1 m/S 713 mmHg 88%
02:00 +7°C° 0 mm 2 m/S 713 mmHg 89%
03:00 +7°C° 0 mm 2 m/S 712 mmHg 90%
04:00 +7°C° 0 mm 2 m/S 712 mmHg 91%
05:00 +7°C° 0 mm 2 m/S 712 mmHg 92%
06:00 +8°C° 0 mm 2 m/S 712 mmHg 93%
07:00 +8°C° 0 mm 2 m/S 711 mmHg 94%
08:00 +9°C° 0.1 mm 3 m/S 711 mmHg 91%
09:00 +10°C° 0.1 mm 3 m/S 711 mmHg 88%
10:00 +11°C° 0.1 mm 3 m/S 711 mmHg 85%
11:00 +12°C° 0.1 mm 4 m/S 711 mmHg 84%
12:00 +12°C° 0.1 mm 4 m/S 711 mmHg 82%
13:00 +12°C° 0.1 mm 4 m/S 710 mmHg 80%
14:00 +11°C° 0 mm 4 m/S 710 mmHg 83%
15:00 +11°C° 0 mm 4 m/S 710 mmHg 86%
16:00 +10°C° 0 mm 3 m/S 709 mmHg 89%
17:00 +10°C° 0 mm 3 m/S 709 mmHg 91%
18:00 +10°C° 0 mm 3 m/S 709 mmHg 93%
19:00 +9°C° 0 mm 3 m/S 710 mmHg 94%
20:00 +9°C° 0 mm 3 m/S 710 mmHg 94%
21:00 +9°C° 0 mm 3 m/S 710 mmHg 94%
22:00 +9°C° 0 mm 3 m/S 710 mmHg 94%
23:00 +9°C° 0 mm 3 m/S 710 mmHg 94%

27 Oktober, Dienstag

Zeit Temperatur Niederschläge Wind Luftdruck Luftfeuchtigkeit
00:00 +9°C° 0 mm 3 m/S 710 mmHg 94%
01:00 +9°C° 0 mm 3 m/S 710 mmHg 94%
02:00 +9°C° 0 mm 3 m/S 710 mmHg 95%
03:00 +9°C° 0 mm 3 m/S 710 mmHg 95%
04:00 +9°C° 0 mm 3 m/S 710 mmHg 95%
05:00 +9°C° 0 mm 3 m/S 710 mmHg 95%
06:00 +9°C° 0 mm 3 m/S 711 mmHg 95%
07:00 +9°C° 0 mm 3 m/S 711 mmHg 95%
08:00 +10°C° 0 mm 3 m/S 711 mmHg 89%
09:00 +12°C° 0 mm 4 m/S 711 mmHg 83%
10:00 +13°C° 0 mm 4 m/S 712 mmHg 78%
11:00 +14°C° 0 mm 4 m/S 712 mmHg 75%
12:00 +14°C° 0 mm 4 m/S 712 mmHg 72%
13:00 +15°C° 0 mm 4 m/S 712 mmHg 68%
14:00 +14°C° 0 mm 3 m/S 712 mmHg 73%
15:00 +13°C° 0 mm 3 m/S 712 mmHg 78%
16:00 +13°C° 0 mm 2 m/S 711 mmHg 83%
17:00 +12°C° 0 mm 2 m/S 711 mmHg 85%
18:00 +10°C° 0 mm 2 m/S 711 mmHg 88%
19:00 +10°C° 0 mm 1 m/S 711 mmHg 90%
20:00 +10°C° 0 mm 1 m/S 711 mmHg 90%
21:00 +10°C° 0 mm 1 m/S 712 mmHg 89%
22:00 +10°C° 0 mm 1 m/S 712 mmHg 88%
23:00 +10°C° 0 mm 1 m/S 712 mmHg 87%
Mehr zeigen

Wir brauchen deine Erlaubnis

Meteoprog und unser Service Anbieter werden persönliche Daten aufbewahren, so wie Cookies, Geräte Bezeichnung oder ähnliche Technologien von deinem Gerät und Prozess, so wie Persönliche Daten Inhalte und Werbungen, genauso wie social Media und den Verkehr zu analysieren.

  • Aufbewahrung und/oder Zugang zu deiner Geräte Informationen.

    Cookies, Geräte Bezeichnung oder andere Informationen, können aufbewahrt oder Zugang zu deinem Gerät erhalten, für den Grund, der oben angegeben wird.

  • Personalisierte Werbung und Inhalte, Messungen, Einblick in das Publikum und Produkt Entwicklung.

    Werbungen und Inhalte können personalisiert werden, basierend auf ein Profil. Mehr Daten können besser personalisierte Werbungen und Inhalte hinzufügen. Werbung und Inhalte können gezeigt und gemessen werden. Einblicke über das Publikum, welche die Werbung gesehen haben und den Inhalt, können abgeleitet werden. So wie Daten können genutzt werden, um es zu verbessern oder die Benutzer Erfahrung zu verbessern das System und die Software.

Wenn du “Ich stimme zu” klickst, erlaubst du uns, die Cookies zu benutzen die Geräte Bezeichnung, den Web oder ähnliche Technologien zu benutzen. Deine Settings, können in deinem Gerät bei deinem Browser geändert werden.

Für den bestimmten Zweck, berechtigten Interessen beruhen darauf, mehr als auf den Inhalt. Du kannst mehr darüber in unseren Privaten und Cookie Politik lesen.